カタログに戻る

STARLINK-30444

運用中通信VLEO
NORAD 57871·PAYLOAD·🇺🇸 United States

打ち上げ Sep 16, 2023 から Cape Canaveral Space Force Station

Loading…

次のパス (今後24時間)

TLE

最新Source: CelesTrak SupGP

元期: Sep 14, 2026, 22:26 UTC

1 57871C 23144H   26257.93520833  .00010868  00000+0  39382-3 0  2574
2 57871  43.0027 296.5824 0001754 270.5545 263.0144 15.27557423    19

AllMySatでSTARLINK-30444をリアルタイム追跡

Download on the App Store